Wind_Speed
15 9 11 13 14 19 21 22 20 20 19 19 18 17 16 15 17 15 14 16 17 17 17 18 17 15 11 9 14 15 9 11 10 10 8 7 5 7 5 4 7 6 4
19 21 13 20 29 25 20 23 21 19 19 19 17 16 16 16 16 16 16 16 16 16 18 18 17 17 16 14 13 17 21 18 15 15 15 18 6 7 12 17 11 10 2
20 22 24 30 30 28 19 19 19 20 19 19 16 16 17 18 17 16 16 16 16 17 17 18 18 19 18 17 14 11 14 16 15 12 12 11 12 10 8 12 12 11 10
20 22 22 24 24 23 21 20 20 22 20 18 18 19 19 19 19 18 18 17 16 16 17 17 16 16 16 17 15 12 11 11 10 10 9 7 8 7 6 7 6 5 5
19 20 21 22 22 22 22 22 22 21 20 20 20 20 18 19 19 19 18 18 17 16 15 15 15 15 14 15 15 13 10 9 9 9 8 7 7 7 6 5 4 2 0
18 20 20 20 20 20 22 22 22 22 23 21 20 19 19 19 20 18 16 15 15 14 14 13 14 15 13 13 13 14 13 10 10 10 8 8 8 9 8 6 6 5 4
16 17 18 19 18 19 20 21 22 23 23 21 20 19 18 18 17 15 14 14 12 12 12 11 11 12 12 11 11 12 11 11 10 9 8 7 7 6 5 6 6 6 6
18 16 16 16 18 19 20 22 22 22 22 20 18 18 16 15 15 14 13 12 11 11 10 10 11 11 10 10 11 11 10 9 8 8 8 8 7 7 7 8 9 10 11
19 18 18 18 19 20 21 22 21 21 19 17 16 15 15 14 13 12 12 10 8 9 9 9 10 11 11 10 10 9 9 9 9 8 9 9 10 11 12 13 14 15 16
17 18 18 19 19 21 22 21 20 19 17 15 14 13 13 10 11 10 10 11 10 11 9 9 10 10 10 11 11 11 12 12 11 10 11 13 14 15 16 17 18 19 20
17 16 17 20 22 22 21 20 19 15 14 14 14 12 11 11 11 10 10 11 11 11 11 10 11 11 12 13 12 12 11 11 4 11 12 15 15 16 17 19 20 21 22
18 17 20 23 24 23 22 20 16 14 13 12 11 10 10 11 11 10 11 11 11 12 12 12 11 12 12 11 11 9 10 10 11 13 14 16 17 19 20 21 22 22 22
21 23 24 25 25 22 19 17 16 14 12 11 11 12 13 12 11 11 10 11 11 11 12 11 11 8 7 6 7 7 10 12 12 15 16 17 17 19 20 21 22 24 25
21 24 24 23 22 19 17 15 13 12 11 10 11 10 11 10 11 11 10 10 10 8 9 10 8 7 8 9 11 10 11 13 15 15 16 18 20 22 22 22 23 25 25
18 20 20 19 18 16 15 14 12 10 11 10 11 9 10 9 10 10 8 8 8 6 6 5 4 6 7 7 8 11 14 16 18 18 21 23 24 26 26 26 29 29 26
14 14 15 12 14 14 14 12 11 9 9 8 7 7 8 7 8 9 8 7 8 6 4 3 5 6 7 8 10 13 16 19 22 25 23 25 27 27 25 29 33 39 40
12 12 10 10 12 12 12 11 9 9 5 5 5 6 6 6 6 7 6 5 6 6 6 8 7 7 8 9 12 15 17 20 22 24 28 28 30 26 29 30 34 41 39
11 12 12 11 9 10 9 8 6 5 3 3 5 6 6 5 5 6 5 5 7 7 9 7 9 11 13 14 17 19 20 21 23 25 31 34 32 32 35 35 40 46 54
7 7 10 10 9 8 7 5 3 1 1 2 4 5 6 4 4 4 3 4 5 5 5 8 10 12 14 16 17 19 21 22 24 26 29 33 37 32 41 42 44 47 55
5 6 6 6 5 6 6 5 3 2 3 3 4 4 4 4 4 4 3 5 4 6 7 9 11 12 13 15 17 18 21 23 24 28 29 32 37 43 46 48 50 52 60
5 4 5 6 6 7 5 4 4 4 5 6 5 5 5 5 3 3 3 3 6 8 8 9 12 15 16 17 18 20 21 21 26 29 35 35 38 43 46 48 51 54 64
7 7 8 8 8 8 8 7 7 7 8 8 8 7 6 6 5 4 3 4 9 9 12 11 15 17 18 20 20 23 26 31 34 33 34 40 42 40 44 47 50 56 62
8 8 8 8 9 10 10 9 8 8 9 7 7 8 7 7 7 6 4 6 10 11 13 16 18 20 20 22 26 28 30 32 36 41 35 35 39 40 43 45 51 58 58
7 7 9 10 12 12 12 12 11 10 10 9 5 5 7 7 7 7 7 6 7 10 12 14 16 19 21 25 30 30 31 34 35 35 40 37 34 32 39 45 51 57 46
9 10 10 12 14 15 14 14 13 12 11 9 7 6 6 7 7 8 9 11 11 12 13 15 18 23 26 30 32 34 34 34 31 29 34 40 41 35 42 46 54 51 46
13 12 12 12 12 15 16 16 16 15 12 10 9 7 7 7 8 7 7 10 11 12 13 16 18 23 26 30 32 33 32 33 32 31 35 38 37 35 40 48 50 50 29
Wind_Direction
89 131 173 175 140 133 121 119 115 110 107 106 98 93 91 92 92 89 84 67 73 74 71 67 64 64 68 59 37 46 136 134 99 90 88 91 71 37 10 53 305 259 230
98 90 122 187 132 116 121 116 116 111 110 103 95 96 95 95 92 86 77 72 72 71 68 71 65 67 68 62 58 70 90 120 103 83 76 61 84 47 61 37 20 227 324
101 102 104 104 105 116 115 115 114 111 103 96 97 94 91 96 96 90 80 75 70 69 67 70 73 69 67 65 68 75 81 81 86 82 82 75 74 80 76 64 49 45 49
103 106 111 115 121 120 111 104 101 99 98 97 94 90 91 93 91 86 79 75 71 70 70 72 77 75 69 64 67 82 83 73 79 76 73 61 70 74 66 55 53 57 71
105 111 115 113 113 108 106 107 104 104 102 96 93 95 95 88 82 76 72 69 67 64 62 66 75 77 75 68 69 80 87 82 74 59 56 55 43 44 40 27 25 10 52
109 109 111 109 105 105 108 108 108 105 99 98 98 94 90 83 75 70 66 64 60 57 56 54 57 66 66 67 74 76 78 81 72 69 67 49 30 24 16 3 352 330 327
114 114 113 110 108 111 115 112 108 105 102 100 99 94 86 80 76 71 64 62 58 56 54 54 62 63 64 69 75 76 77 81 77 66 57 51 34 20 357 341 327 319 306
123 127 127 120 118 117 117 112 110 103 103 104 96 86 79 76 72 67 61 57 53 50 53 54 55 55 61 64 68 70 59 61 63 53 46 28 11 356 341 329 319 313 310
121 127 132 130 127 120 115 114 111 111 112 99 91 83 74 67 66 63 59 63 61 57 57 61 66 65 64 72 68 61 60 55 49 39 28 25 8 353 341 332 320 309 300
116 120 123 125 120 122 120 117 115 113 108 96 85 78 72 68 62 56 54 59 56 59 66 64 62 68 68 61 60 61 59 51 41 30 21 12 0 348 341 331 321 311 303
113 121 126 123 120 121 119 119 118 113 112 100 89 79 70 63 62 57 53 61 61 70 76 74 67 66 64 76 70 55 44 36 43 10 7 2 357 349 347 348 344 338 328
109 119 125 126 125 123 121 121 120 116 108 99 91 84 76 68 62 57 58 62 65 75 74 74 72 65 66 63 54 41 27 8 9 2 355 350 350 347 344 342 341 340 337
111 118 125 128 128 129 126 121 118 116 114 106 97 81 67 62 64 59 61 63 79 77 74 69 78 67 54 34 35 21 14 356 355 346 350 348 345 340 336 335 336 333 335
118 122 125 128 131 130 131 124 119 119 111 101 87 76 69 65 66 61 66 72 72 71 66 67 61 51 26 14 6 357 346 342 338 343 343 338 334 332 330 330 326 327 330
124 125 126 131 137 135 131 128 126 124 108 95 88 80 68 65 59 62 61 64 69 71 74 67 50 26 4 355 351 340 339 334 332 337 330 328 332 330 325 330 329 324 323
127 132 130 132 145 144 144 140 133 116 103 88 78 66 58 57 60 63 61 46 52 58 59 44 26 4 350 347 344 336 338 332 332 326 329 325 326 322 319 324 326 326 324
145 143 147 139 147 147 145 143 132 108 99 65 35 28 34 38 47 57 69 52 44 37 40 27 11 357 350 347 338 335 330 326 325 321 323 323 321 324 314 324 323 321 329
157 156 155 149 147 153 143 141 140 117 77 38 16 0 7 26 52 58 60 45 29 20 23 11 12 3 356 349 343 336 330 327 327 325 322 323 322 323 319 320 317 326 326
155 169 167 165 165 163 155 152 141 14 354 343 0 349 345 12 55 65 53 52 24 360 348 351 352 348 344 342 339 338 334 328 325 322 323 323 321 334 320 318 322 325 320
160 174 186 185 196 191 184 179 181 229 253 286 318 334 342 8 44 70 52 31 349 335 335 338 333 333 335 338 340 336 330 327 325 324 319 316 310 315 315 319 321 325 319
188 203 208 205 218 231 221 221 256 277 291 298 308 328 352 359 8 31 27 342 322 317 325 332 332 334 336 339 340 337 335 328 323 323 322 322 321 319 321 320 318 321 319
192 213 226 225 223 225 230 236 254 273 290 302 312 326 345 341 347 16 349 322 312 320 324 342 341 339 342 344 341 340 334 330 330 330 324 320 322 325 320 319 321 320 328
243 215 213 235 233 230 237 244 252 266 276 297 315 319 330 330 336 342 338 320 314 327 339 350 352 345 348 344 338 334 333 330 326 328 331 325 324 328 321 324 323 325 327
232 244 244 229 234 240 238 242 255 265 277 286 290 308 320 323 329 336 331 327 325 329 345 352 344 338 341 338 335 336 334 329 325 324 328 332 334 337 326 329 330 329 328
239 233 245 256 261 258 255 256 256 261 266 264 277 293 304 312 321 324 330 333 341 342 345 347 341 337 341 338 335 333 336 329 326 321 329 335 337 346 335 336 334 332 333
234 236 238 246 257 263 265 261 259 258 255 262 268 272 280 289 297 304 317 324 331 339 343 340 338 336 336 335 336 335 338 329 327 326 332 335 337 349 342 340 340 339 344
Height
5874 5875 5877 5880 5882 5884 5885 5886 5887 5889 5890 5890 5890 5889 5890 5890 5889 5890 5890 5888 5887 5887 5885 5884 5883 5882 5881 5881 5879 5877 5878 5880 5882 5882 5882 5882 5882 5882 5882 5883 5882 5882 5884
5879 5880 5880 5881 5884 5888 5889 5889 5890 5891 5892 5892 5892 5892 5891 5891 5891 5891 5891 5889 5889 5888 5887 5887 5886 5885 5884 5883 5882 5881 5880 5880 5882 5884 5884 5883 5883 5883 5884 5884 5881 5884 5886
5884 5883 5884 5884 5887 5890 5893 5892 5892 5892 5894 5894 5895 5894 5893 5894 5893 5893 5892 5891 5890 5889 5889 5889 5889 5887 5887 5886 5885 5883 5883 5883 5883 5884 5884 5884 5884 5885 5885 5885 5885 5885 5885
5886 5887 5888 5889 5891 5893 5894 5895 5896 5896 5897 5898 5898 5897 5898 5897 5895 5895 5894 5893 5893 5891 5891 5891 5890 5889 5889 5888 5887 5886 5886 5886 5886 5886 5886 5888 5887 5887 5887 5886 5887 5887 5887
5889 5891 5892 5893 5895 5896 5897 5899 5899 5899 5900 5900 5900 5900 5899 5899 5898 5897 5896 5896 5895 5894 5893 5893 5892 5891 5891 5890 5890 5889 5889 5888 5888 5888 5889 5890 5889 5888 5888 5887 5888 5889 5888
5892 5893 5895 5897 5898 5900 5901 5902 5903 5903 5904 5904 5904 5902 5902 5901 5900 5900 5899 5898 5897 5897 5896 5896 5895 5895 5895 5894 5893 5893 5892 5892 5892 5891 5891 5891 5891 5890 5890 5891 5890 5891 5890
5895 5897 5899 5900 5902 5904 5905 5905 5906 5906 5907 5907 5906 5906 5905 5904 5904 5903 5903 5902 5901 5899 5898 5897 5897 5897 5897 5897 5896 5896 5895 5895 5894 5895 5894 5894 5894 5893 5893 5893 5893 5892 5892
5899 5901 5902 5904 5906 5908 5908 5909 5910 5909 5909 5911 5911 5910 5909 5908 5908 5907 5907 5905 5904 5902 5901 5900 5900 5899 5899 5899 5899 5899 5898 5897 5896 5896 5895 5895 5895 5895 5894 5893 5893 5892 5891
5901 5904 5906 5908 5909 5910 5911 5913 5913 5913 5914 5914 5913 5913 5913 5912 5911 5911 5910 5908 5907 5906 5905 5903 5903 5902 5901 5900 5901 5901 5900 5900 5899 5898 5898 5897 5896 5896 5895 5894 5893 5891 5890
5904 5906 5908 5910 5912 5913 5914 5915 5916 5917 5917 5917 5917 5917 5917 5916 5915 5914 5912 5911 5909 5908 5907 5906 5905 5903 5903 5904 5904 5903 5903 5903 5902 5901 5900 5899 5897 5896 5894 5893 5891 5890 5889
5906 5908 5910 5912 5914 5916 5917 5918 5919 5920 5920 5920 5920 5920 5920 5919 5918 5916 5914 5913 5912 5911 5910 5909 5909 5908 5908 5907 5907 5907 5906 5905 5906 5903 5901 5899 5897 5895 5893 5891 5888 5887 5885
5909 5910 5912 5915 5917 5919 5920 5921 5922 5923 5923 5923 5923 5922 5922 5922 5920 5919 5917 5916 5916 5915 5913 5912 5912 5912 5911 5911 5910 5908 5907 5907 5906 5903 5901 5899 5897 5895 5892 5889 5887 5884 5882
5912 5914 5916 5918 5920 5922 5923 5925 5925 5925 5925 5925 5925 5925 5924 5924 5923 5922 5921 5921 5919 5918 5917 5917 5917 5915 5913 5913 5911 5910 5908 5907 5905 5902 5900 5899 5896 5894 5891 5888 5885 5882 5879
5917 5919 5920 5922 5924 5926 5927 5928 5928 5928 5927 5927 5926 5926 5927 5926 5925 5925 5924 5924 5922 5921 5920 5918 5916 5916 5916 5913 5911 5911 5909 5906 5903 5902 5900 5897 5895 5892 5889 5886 5882 5878 5875
5923 5924 5925 5926 5927 5929 5930 5930 5931 5930 5929 5929 5930 5929 5928 5928 5928 5928 5927 5926 5925 5923 5921 5921 5919 5918 5917 5916 5914 5911 5909 5906 5903 5902 5897 5895 5893 5889 5884 5880 5877 5872 5869
5927 5928 5928 5929 5930 5931 5932 5933 5933 5932 5932 5932 5932 5931 5931 5930 5929 5928 5927 5926 5925 5925 5923 5922 5921 5920 5917 5916 5915 5911 5909 5905 5901 5895 5896 5892 5889 5886 5879 5875 5870 5864 5863
5929 5931 5931 5932 5933 5934 5935 5935 5936 5937 5934 5934 5933 5933 5932 5931 5930 5929 5928 5928 5928 5927 5925 5924 5921 5919 5918 5917 5913 5911 5908 5903 5899 5895 5891 5888 5884 5880 5876 5871 5868 5860 5857
5931 5932 5933 5934 5936 5937 5938 5937 5937 5937 5936 5935 5934 5933 5932 5932 5931 5930 5930 5929 5930 5928 5926 5923 5921 5919 5918 5915 5912 5909 5905 5901 5898 5894 5886 5880 5879 5875 5870 5866 5859 5854 5847
5934 5935 5936 5936 5937 5938 5939 5939 5939 5939 5937 5935 5934 5933 5932 5931 5931 5930 5931 5930 5929 5927 5925 5923 5921 5919 5917 5914 5911 5908 5904 5900 5896 5891 5885 5880 5872 5863 5862 5857 5851 5845 5836
5934 5936 5938 5939 5939 5940 5940 5940 5940 5939 5937 5935 5934 5933 5932 5931 5930 5930 5930 5929 5927 5926 5924 5922 5920 5918 5915 5911 5909 5905 5901 5897 5893 5887 5883 5879 5875 5865 5857 5847 5840 5833 5823
5934 5936 5938 5939 5940 5940 5941 5941 5940 5939 5938 5936 5935 5933 5932 5931 5930 5930 5928 5928 5927 5925 5923 5922 5920 5917 5914 5911 5907 5904 5900 5896 5890 5885 5877 5873 5869 5860 5851 5843 5832 5825 5813
5934 5935 5936 5938 5939 5940 5940 5941 5940 5939 5938 5937 5935 5934 5932 5931 5930 5929 5928 5928 5926 5926 5923 5922 5920 5916 5915 5911 5907 5903 5898 5891 5884 5880 5876 5867 5860 5856 5847 5836 5828 5817 5806
5934 5934 5936 5938 5939 5940 5940 5940 5940 5939 5938 5937 5936 5935 5933 5931 5932 5930 5928 5927 5926 5925 5923 5922 5920 5916 5914 5911 5906 5903 5898 5891 5882 5873 5871 5866 5858 5850 5839 5834 5822 5812 5801
5934 5935 5936 5936 5937 5938 5939 5939 5939 5938 5937 5936 5935 5934 5934 5932 5932 5931 5929 5928 5926 5924 5923 5922 5919 5915 5913 5908 5903 5900 5895 5889 5880 5874 5861 5860 5854 5849 5837 5828 5818 5805 5792
5933 5933 5934 5935 5937 5937 5938 5938 5937 5937 5936 5935 5935 5933 5933 5932 5931 5930 5929 5927 5926 5924 5923 5921 5918 5915 5913 5907 5901 5896 5891 5883 5879 5871 5863 5853 5844 5841 5830 5823 5810 5795 5784
5930 5931 5931 5932 5933 5935 5936 5936 5936 5936 5935 5934 5933 5933 5932 5932 5931 5929 5928 5927 5925 5924 5922 5920 5917 5913 5909 5904 5899 5894 5889 5881 5872 5865 5859 5852 5844 5838 5829 5817 5804 5790 5779